Year,Month,Day,Hour,Minute,Value (Times are PST for temperature in C)
2011,07,03,00,00,15.00
2011,07,03,00,01,14.90
2011,07,03,00,02,14.90
2011,07,03,00,03,14.90
2011,07,03,00,04,14.90
2011,07,03,00,05,14.90
2011,07,03,00,06,14.80
2011,07,03,00,07,14.80
2011,07,03,00,08,14.80
2011,07,03,00,09,14.80
2011,07,03,00,10,14.80
2011,07,03,00,11,14.80
2011,07,03,00,12,14.80
2011,07,03,00,13,14.80
2011,07,03,00,14,14.80
2011,07,03,00,15,14.80
2011,07,03,00,16,14.80
2011,07,03,00,17,14.80
2011,07,03,00,18,14.80
2011,07,03,00,19,14.80
2011,07,03,00,20,14.80
2011,07,03,00,21,14.80
2011,07,03,00,22,14.80
2011,07,03,00,23,14.70
2011,07,03,00,24,14.70
2011,07,03,00,25,14.70
2011,07,03,00,26,14.70
2011,07,03,00,27,14.70
2011,07,03,00,28,14.70
2011,07,03,00,29,14.70
2011,07,03,00,30,14.70
2011,07,03,00,31,14.70
2011,07,03,00,32,14.70
2011,07,03,00,33,14.70
2011,07,03,00,34,14.70
2011,07,03,00,35,14.70
2011,07,03,00,36,14.70
2011,07,03,00,37,14.70
2011,07,03,00,38,14.70
2011,07,03,00,39,14.70
2011,07,03,00,40,14.70
2011,07,03,00,41,14.70
2011,07,03,00,42,14.70
2011,07,03,00,43,14.60
2011,07,03,00,44,14.60
2011,07,03,00,45,14.60
2011,07,03,00,46,14.60
2011,07,03,00,47,14.60
2011,07,03,00,48,14.60
2011,07,03,00,49,14.60
2011,07,03,00,50,14.60
2011,07,03,00,51,14.60
2011,07,03,00,52,14.50
2011,07,03,00,53,14.50
2011,07,03,00,54,14.60
2011,07,03,00,55,14.60
2011,07,03,00,56,14.60
2011,07,03,00,57,14.60
2011,07,03,00,58,14.60
2011,07,03,00,59,14.60
2011,07,03,01,00,14.60
2011,07,03,01,01,14.60
2011,07,03,01,02,14.60
2011,07,03,01,03,14.60
2011,07,03,01,04,14.60
2011,07,03,01,05,14.60
2011,07,03,01,06,14.60
2011,07,03,01,07,14.60
2011,07,03,01,08,14.60
2011,07,03,01,09,14.60
2011,07,03,01,10,14.60
2011,07,03,01,11,14.60
2011,07,03,01,12,14.60
2011,07,03,01,13,14.60
2011,07,03,01,14,14.60
2011,07,03,01,15,14.60
2011,07,03,01,16,14.60
2011,07,03,01,17,14.60
2011,07,03,01,18,14.60
2011,07,03,01,19,14.60
2011,07,03,01,20,14.60
2011,07,03,01,21,14.60
2011,07,03,01,22,14.60
2011,07,03,01,23,14.60
2011,07,03,01,24,14.60
2011,07,03,01,25,14.60
2011,07,03,01,26,14.60
2011,07,03,01,27,14.60
2011,07,03,01,28,14.60
2011,07,03,01,29,14.60
2011,07,03,01,30,14.60
2011,07,03,01,31,14.70
2011,07,03,01,32,14.70
2011,07,03,01,33,14.70
2011,07,03,01,34,14.70
2011,07,03,01,35,14.70
2011,07,03,01,36,14.70
2011,07,03,01,37,14.70
2011,07,03,01,38,14.70
2011,07,03,01,39,14.60
2011,07,03,01,40,14.60
2011,07,03,01,41,14.60
2011,07,03,01,42,14.60
2011,07,03,01,43,14.60
2011,07,03,01,44,14.60
2011,07,03,01,45,14.60
2011,07,03,01,46,14.60
2011,07,03,01,47,14.60
2011,07,03,01,48,14.50
2011,07,03,01,49,14.50
2011,07,03,01,50,14.50
2011,07,03,01,51,14.50
2011,07,03,01,52,14.40
2011,07,03,01,53,14.40
2011,07,03,01,54,14.40
2011,07,03,01,55,14.40
2011,07,03,01,56,14.40
2011,07,03,01,57,14.40
2011,07,03,01,58,14.30
2011,07,03,01,59,14.30
2011,07,03,02,00,14.30
2011,07,03,02,01,14.30
2011,07,03,02,02,14.30
2011,07,03,02,03,14.30
2011,07,03,02,04,14.30
2011,07,03,02,05,14.30
2011,07,03,02,06,14.30
2011,07,03,02,07,14.30
2011,07,03,02,08,14.30
2011,07,03,02,09,14.30
2011,07,03,02,10,14.30
2011,07,03,02,11,14.30
2011,07,03,02,12,14.30
2011,07,03,02,13,14.30
2011,07,03,02,14,14.30
2011,07,03,02,15,14.30
2011,07,03,02,16,14.30
2011,07,03,02,17,14.30
2011,07,03,02,18,14.30
2011,07,03,02,19,14.30
2011,07,03,02,20,14.20
2011,07,03,02,21,14.20
2011,07,03,02,22,14.20
2011,07,03,02,23,14.20
2011,07,03,02,24,14.20
2011,07,03,02,25,14.20
2011,07,03,02,26,14.20
2011,07,03,02,27,14.20
2011,07,03,02,28,14.20
2011,07,03,02,29,14.20
2011,07,03,02,30,14.20
2011,07,03,02,31,14.20
2011,07,03,02,32,14.20
2011,07,03,02,33,14.20
2011,07,03,02,34,14.20
2011,07,03,02,35,14.20
2011,07,03,02,36,14.20
2011,07,03,02,37,14.20
2011,07,03,02,38,14.20
2011,07,03,02,39,14.20
2011,07,03,02,40,14.20
2011,07,03,02,41,14.20
2011,07,03,02,42,14.20
2011,07,03,02,43,14.20
2011,07,03,02,44,14.20
2011,07,03,02,45,14.20
2011,07,03,02,46,14.20
2011,07,03,02,47,14.20
2011,07,03,02,48,14.20
2011,07,03,02,49,14.20
2011,07,03,02,50,14.20
2011,07,03,02,51,14.20
2011,07,03,02,52,14.20
2011,07,03,02,53,14.20
2011,07,03,02,54,14.20
2011,07,03,02,55,14.20
2011,07,03,02,56,14.20
2011,07,03,02,57,14.20
2011,07,03,02,58,14.20
2011,07,03,02,59,14.20
2011,07,03,03,00,14.20
2011,07,03,03,01,14.20
2011,07,03,03,02,14.30
2011,07,03,03,03,14.30
2011,07,03,03,04,14.30
2011,07,03,03,05,14.30
2011,07,03,03,06,14.30
2011,07,03,03,07,14.20
2011,07,03,03,08,14.20
2011,07,03,03,09,14.20
2011,07,03,03,10,14.20
2011,07,03,03,11,14.20
2011,07,03,03,12,14.20
2011,07,03,03,13,14.30
2011,07,03,03,14,14.30
2011,07,03,03,15,14.30
2011,07,03,03,16,14.30
2011,07,03,03,17,14.30
2011,07,03,03,18,14.30
2011,07,03,03,19,14.30
2011,07,03,03,20,14.30
2011,07,03,03,21,14.30
2011,07,03,03,22,14.30
2011,07,03,03,23,14.30
2011,07,03,03,24,14.30
2011,07,03,03,25,14.30
2011,07,03,03,26,14.30
2011,07,03,03,27,14.30
2011,07,03,03,28,14.30
2011,07,03,03,29,14.30
2011,07,03,03,30,14.30
2011,07,03,03,31,14.30
2011,07,03,03,32,14.30
2011,07,03,03,33,14.30
2011,07,03,03,34,14.30
2011,07,03,03,35,14.40
2011,07,03,03,36,14.40
2011,07,03,03,37,14.40
2011,07,03,03,38,14.30
2011,07,03,03,39,14.30
2011,07,03,03,40,14.30
2011,07,03,03,41,14.30
2011,07,03,03,42,14.40
2011,07,03,03,43,14.40
2011,07,03,03,44,14.40
2011,07,03,03,45,14.40
2011,07,03,03,46,14.50
2011,07,03,03,47,14.50
2011,07,03,03,48,14.50
2011,07,03,03,49,14.50
2011,07,03,03,50,14.60
2011,07,03,03,51,14.60
2011,07,03,03,52,14.60
2011,07,03,03,53,14.50
2011,07,03,03,54,14.50
2011,07,03,03,55,14.50
2011,07,03,03,56,14.50
2011,07,03,03,57,14.60
2011,07,03,03,58,14.60
2011,07,03,03,59,14.60
2011,07,03,04,00,14.60
2011,07,03,04,01,14.70
2011,07,03,04,02,14.70
2011,07,03,04,03,14.80
2011,07,03,04,04,14.80
2011,07,03,04,05,14.80
2011,07,03,04,06,14.90
2011,07,03,04,07,14.90
2011,07,03,04,08,14.90
2011,07,03,04,09,15.00
2011,07,03,04,10,15.00
2011,07,03,04,11,15.00
2011,07,03,04,12,15.00
2011,07,03,04,13,15.00
2011,07,03,04,14,15.00
2011,07,03,04,15,15.10
2011,07,03,04,16,15.10
2011,07,03,04,17,15.10
2011,07,03,04,18,15.10
2011,07,03,04,19,15.10
2011,07,03,04,20,15.10
2011,07,03,04,21,15.10
2011,07,03,04,22,15.10
2011,07,03,04,23,15.20
2011,07,03,04,24,15.20
2011,07,03,04,25,15.20
2011,07,03,04,26,15.20
2011,07,03,04,27,15.30
2011,07,03,04,28,15.30
2011,07,03,04,29,15.30
2011,07,03,04,30,15.30
2011,07,03,04,31,15.30
2011,07,03,04,32,15.30
2011,07,03,04,33,15.30
2011,07,03,04,34,15.30
2011,07,03,04,35,15.30
2011,07,03,04,36,15.30
2011,07,03,04,37,15.30
2011,07,03,04,38,15.30
2011,07,03,04,39,15.30
2011,07,03,04,40,15.30
2011,07,03,04,41,15.30
2011,07,03,04,42,15.30
2011,07,03,04,43,15.30
2011,07,03,04,44,15.30
2011,07,03,04,45,15.30
2011,07,03,04,46,15.30
2011,07,03,04,47,15.30
2011,07,03,04,48,15.30
2011,07,03,04,49,15.30
2011,07,03,04,50,15.30
2011,07,03,04,51,15.30
2011,07,03,04,52,15.30
2011,07,03,04,53,15.30
2011,07,03,04,54,15.20
2011,07,03,04,55,15.20
2011,07,03,04,56,15.20
2011,07,03,04,57,15.20
2011,07,03,04,58,15.10
2011,07,03,04,59,15.10
2011,07,03,05,00,15.10
2011,07,03,05,01,15.10
2011,07,03,05,02,15.10
2011,07,03,05,03,15.10
2011,07,03,05,04,15.10
2011,07,03,05,05,15.10
2011,07,03,05,06,15.10
2011,07,03,05,07,15.10
2011,07,03,05,08,15.00
2011,07,03,05,09,15.00
2011,07,03,05,10,15.00
2011,07,03,05,11,15.00
2011,07,03,05,12,15.00
2011,07,03,05,13,15.00
2011,07,03,05,14,15.00
2011,07,03,05,15,15.00
2011,07,03,05,16,15.00
2011,07,03,05,17,15.00
2011,07,03,05,18,15.00
2011,07,03,05,19,15.00
2011,07,03,05,20,15.00
2011,07,03,05,21,15.00
2011,07,03,05,22,15.00
2011,07,03,05,23,15.00
2011,07,03,05,24,14.90
2011,07,03,05,25,14.90
2011,07,03,05,26,14.90
2011,07,03,05,27,14.90
2011,07,03,05,28,14.90
2011,07,03,05,29,14.90
2011,07,03,05,30,14.90
2011,07,03,05,31,14.80
2011,07,03,05,32,14.80
2011,07,03,05,33,14.80
2011,07,03,05,34,14.80
2011,07,03,05,35,14.80
2011,07,03,05,36,14.80
2011,07,03,05,37,14.80
2011,07,03,05,38,14.80
2011,07,03,05,39,14.80
2011,07,03,05,40,14.80
2011,07,03,05,41,14.80
2011,07,03,05,42,14.80
2011,07,03,05,43,14.80
2011,07,03,05,44,14.80
2011,07,03,05,45,14.80
2011,07,03,05,46,14.80
2011,07,03,05,47,14.80
2011,07,03,05,48,14.80
2011,07,03,05,49,14.80
2011,07,03,05,50,14.80
2011,07,03,05,51,14.80
2011,07,03,05,52,14.80
2011,07,03,05,53,14.80
2011,07,03,05,54,14.80
2011,07,03,05,55,14.80
2011,07,03,05,56,14.80
2011,07,03,05,57,14.80
2011,07,03,05,58,14.80
2011,07,03,05,59,14.80
2011,07,03,06,00,14.70
2011,07,03,06,01,14.70
2011,07,03,06,02,14.70
2011,07,03,06,03,14.70
2011,07,03,06,04,14.70
2011,07,03,06,05,14.70
2011,07,03,06,06,14.70
2011,07,03,06,07,14.70
2011,07,03,06,08,14.60
2011,07,03,06,09,14.60
2011,07,03,06,10,14.60
2011,07,03,06,11,14.60
2011,07,03,06,12,14.60
2011,07,03,06,13,14.50
2011,07,03,06,14,14.50
2011,07,03,06,15,14.50
2011,07,03,06,16,14.40
2011,07,03,06,17,14.40
2011,07,03,06,18,14.30
2011,07,03,06,19,14.30
2011,07,03,06,20,14.20
2011,07,03,06,21,14.20
2011,07,03,06,22,14.20
2011,07,03,06,23,14.20
2011,07,03,06,24,14.20
2011,07,03,06,25,14.10
2011,07,03,06,26,14.10
2011,07,03,06,27,14.10
2011,07,03,06,28,14.10
2011,07,03,06,29,14.10
2011,07,03,06,30,14.10
2011,07,03,06,31,14.00
2011,07,03,06,32,14.00
2011,07,03,06,33,14.00
2011,07,03,06,34,14.00
2011,07,03,06,35,14.00
2011,07,03,06,36,14.00
2011,07,03,06,37,14.00
2011,07,03,06,38,14.00
2011,07,03,06,39,14.00
2011,07,03,06,40,14.00
2011,07,03,06,41,14.00
2011,07,03,06,42,14.00
2011,07,03,06,43,14.00
2011,07,03,06,44,14.00
2011,07,03,06,45,14.00
2011,07,03,06,46,14.00
2011,07,03,06,47,14.00
2011,07,03,06,48,14.10
2011,07,03,06,49,14.10
2011,07,03,06,50,14.10
2011,07,03,06,51,14.10
2011,07,03,06,52,14.10
2011,07,03,06,53,14.10
2011,07,03,06,54,14.10
2011,07,03,06,55,14.10
2011,07,03,06,56,14.10
2011,07,03,06,57,14.10
2011,07,03,06,58,14.10
2011,07,03,06,59,14.10
2011,07,03,07,00,14.10
2011,07,03,07,01,14.10
2011,07,03,07,02,14.10
2011,07,03,07,03,14.10
2011,07,03,07,04,14.00
2011,07,03,07,05,14.00
2011,07,03,07,06,14.00
2011,07,03,07,07,14.00
2011,07,03,07,08,14.10
2011,07,03,07,09,14.10
2011,07,03,07,10,14.10
2011,07,03,07,11,14.20
2011,07,03,07,12,14.20
2011,07,03,07,13,14.20
2011,07,03,07,14,14.20
2011,07,03,07,15,14.20
2011,07,03,07,16,14.30
2011,07,03,07,17,14.30
2011,07,03,07,18,14.30
2011,07,03,07,19,14.40
2011,07,03,07,20,14.40
2011,07,03,07,21,14.40
2011,07,03,07,22,14.50
2011,07,03,07,23,14.50
2011,07,03,07,24,14.50
2011,07,03,07,25,14.60
2011,07,03,07,26,14.60
2011,07,03,07,27,14.60
2011,07,03,07,28,14.70
2011,07,03,07,29,14.70
2011,07,03,07,30,14.70
2011,07,03,07,31,14.70
2011,07,03,07,32,14.70
2011,07,03,07,33,14.70
2011,07,03,07,34,14.70
2011,07,03,07,35,14.70
2011,07,03,07,36,14.70
2011,07,03,07,37,14.70
2011,07,03,07,38,14.70
2011,07,03,07,39,14.70
2011,07,03,07,40,14.80
2011,07,03,07,41,14.80
2011,07,03,07,42,14.90
2011,07,03,07,43,14.90
2011,07,03,07,44,15.00
2011,07,03,07,45,15.10
2011,07,03,07,46,15.10
2011,07,03,07,47,15.10
2011,07,03,07,48,15.10
2011,07,03,07,49,15.20
2011,07,03,07,50,15.20
2011,07,03,07,51,15.20
2011,07,03,07,52,15.20
2011,07,03,07,53,15.20
2011,07,03,07,54,15.10
2011,07,03,07,55,15.10
2011,07,03,07,56,15.10
2011,07,03,07,57,15.10
2011,07,03,07,58,15.10
2011,07,03,07,59,15.00
2011,07,03,08,00,15.00
2011,07,03,08,01,15.00
2011,07,03,08,02,15.00
2011,07,03,08,03,15.00
2011,07,03,08,04,15.00
2011,07,03,08,05,15.10
2011,07,03,08,06,15.20
2011,07,03,08,07,15.20
2011,07,03,08,08,15.30
2011,07,03,08,09,15.30
2011,07,03,08,10,15.40
2011,07,03,08,11,15.50
2011,07,03,08,12,15.50
2011,07,03,08,13,15.60
2011,07,03,08,14,15.70
2011,07,03,08,15,15.80
2011,07,03,08,16,15.80
2011,07,03,08,17,15.80
2011,07,03,08,18,15.90
2011,07,03,08,19,15.90
2011,07,03,08,20,15.90
2011,07,03,08,21,15.90
2011,07,03,08,22,15.90
2011,07,03,08,23,15.90
2011,07,03,08,24,16.00
2011,07,03,08,25,16.10
2011,07,03,08,26,16.10
2011,07,03,08,27,16.20
2011,07,03,08,28,16.20
2011,07,03,08,29,16.30
2011,07,03,08,30,16.30
2011,07,03,08,31,16.30
2011,07,03,08,32,16.40
2011,07,03,08,33,16.40
2011,07,03,08,34,16.30
2011,07,03,08,35,16.30
2011,07,03,08,36,16.40
2011,07,03,08,37,16.40
2011,07,03,08,38,16.50
2011,07,03,08,39,16.60
2011,07,03,08,40,16.70
2011,07,03,08,41,16.70
2011,07,03,08,42,16.80
2011,07,03,08,43,16.80
2011,07,03,08,44,16.80
2011,07,03,08,45,16.80
2011,07,03,08,46,16.80
2011,07,03,08,47,16.90
2011,07,03,08,48,16.90
2011,07,03,08,49,17.00
2011,07,03,08,50,17.00
2011,07,03,08,51,17.00
2011,07,03,08,52,16.90
2011,07,03,08,53,16.80
2011,07,03,08,54,16.80
2011,07,03,08,55,16.80
2011,07,03,08,56,16.70
2011,07,03,08,57,16.70
2011,07,03,08,58,16.70
2011,07,03,08,59,16.70
2011,07,03,09,00,16.70
2011,07,03,09,01,16.60
2011,07,03,09,02,16.60
2011,07,03,09,03,16.60
2011,07,03,09,04,16.70
2011,07,03,09,05,16.60
2011,07,03,09,06,16.60
2011,07,03,09,07,16.60
2011,07,03,09,08,16.70
2011,07,03,09,09,16.70
2011,07,03,09,10,16.80
2011,07,03,09,11,16.90
2011,07,03,09,12,17.00
2011,07,03,09,13,17.10
2011,07,03,09,14,17.00
2011,07,03,09,15,17.00
2011,07,03,09,16,17.00
2011,07,03,09,17,16.90
2011,07,03,09,18,16.90
2011,07,03,09,19,16.80
2011,07,03,09,20,16.70
2011,07,03,09,21,16.80
2011,07,03,09,22,16.80
2011,07,03,09,23,16.80
2011,07,03,09,24,16.90
2011,07,03,09,25,17.00
2011,07,03,09,26,17.10
2011,07,03,09,27,17.20
2011,07,03,09,28,17.20
2011,07,03,09,29,17.20
2011,07,03,09,30,17.20
2011,07,03,09,31,17.20
2011,07,03,09,32,17.20
2011,07,03,09,33,17.30
2011,07,03,09,34,17.30
2011,07,03,09,35,17.30
2011,07,03,09,36,17.30
2011,07,03,09,37,17.30
2011,07,03,09,38,17.30
2011,07,03,09,39,17.30
2011,07,03,09,40,17.40
2011,07,03,09,41,17.50
2011,07,03,09,42,17.50
2011,07,03,09,43,17.50
2011,07,03,09,44,17.50
2011,07,03,09,45,17.60
2011,07,03,09,46,17.70
2011,07,03,09,47,17.70
2011,07,03,09,48,17.70
2011,07,03,09,49,17.80
2011,07,03,09,50,17.70
2011,07,03,09,51,17.80
2011,07,03,09,52,17.80
2011,07,03,09,53,17.90
2011,07,03,09,54,18.00
2011,07,03,09,55,18.10
2011,07,03,09,56,18.20
2011,07,03,09,57,18.40
2011,07,03,09,58,18.40
2011,07,03,09,59,18.40
2011,07,03,10,00,18.40
2011,07,03,10,01,18.50
2011,07,03,10,02,18.50
2011,07,03,10,03,18.60
2011,07,03,10,04,18.60
2011,07,03,10,05,18.50
2011,07,03,10,06,18.60
2011,07,03,10,07,18.60
2011,07,03,10,08,18.60
2011,07,03,10,09,18.70
2011,07,03,10,10,18.70
2011,07,03,10,11,18.80
2011,07,03,10,12,18.90
2011,07,03,10,13,18.90
2011,07,03,10,14,18.80
2011,07,03,10,15,18.80
2011,07,03,10,16,18.90
2011,07,03,10,17,19.00
2011,07,03,10,18,19.10
2011,07,03,10,19,19.10
2011,07,03,10,20,19.10
2011,07,03,10,21,19.20
2011,07,03,10,22,19.20
2011,07,03,10,23,19.10
2011,07,03,10,24,19.10
2011,07,03,10,25,19.10
2011,07,03,10,26,19.00
2011,07,03,10,27,18.90
2011,07,03,10,28,18.90
2011,07,03,10,29,18.90
2011,07,03,10,30,18.90
2011,07,03,10,31,18.90
2011,07,03,10,32,18.90
2011,07,03,10,33,19.00
2011,07,03,10,34,19.10
2011,07,03,10,35,19.10
2011,07,03,10,36,19.10
2011,07,03,10,37,19.20
2011,07,03,10,38,19.20
2011,07,03,10,39,19.20
2011,07,03,10,40,19.20
2011,07,03,10,41,19.20
2011,07,03,10,42,19.10
2011,07,03,10,43,19.10
2011,07,03,10,44,19.10
2011,07,03,10,45,19.10
2011,07,03,10,46,19.10
2011,07,03,10,47,19.10
2011,07,03,10,48,19.10
2011,07,03,10,49,19.10
2011,07,03,10,50,19.10
2011,07,03,10,51,19.20
2011,07,03,10,52,19.30
2011,07,03,10,53,19.30
2011,07,03,10,54,19.30
2011,07,03,10,55,19.30
2011,07,03,10,56,19.30
2011,07,03,10,57,19.30
2011,07,03,10,58,19.30
2011,07,03,10,59,19.40
2011,07,03,11,00,19.40
2011,07,03,11,01,19.50
2011,07,03,11,02,19.60
2011,07,03,11,03,19.60
2011,07,03,11,04,19.60
2011,07,03,11,05,19.60
2011,07,03,11,06,19.60
2011,07,03,11,07,19.40
2011,07,03,11,08,19.30
2011,07,03,11,09,19.30
2011,07,03,11,10,19.20
2011,07,03,11,11,19.10
2011,07,03,11,12,19.00
2011,07,03,11,13,18.90
2011,07,03,11,14,18.90
2011,07,03,11,15,18.80
2011,07,03,11,16,18.80
2011,07,03,11,17,18.80
2011,07,03,11,18,18.80
2011,07,03,11,19,18.90
2011,07,03,11,20,18.90
2011,07,03,11,21,19.10
2011,07,03,11,22,19.10
2011,07,03,11,23,19.00
2011,07,03,11,24,18.90
2011,07,03,11,25,18.70
2011,07,03,11,26,18.70
2011,07,03,11,27,18.60
2011,07,03,11,28,18.70
2011,07,03,11,29,18.80
2011,07,03,11,30,18.90
2011,07,03,11,31,18.90
2011,07,03,11,32,18.90
2011,07,03,11,33,18.90
2011,07,03,11,34,18.90
2011,07,03,11,35,18.80
2011,07,03,11,36,18.70
2011,07,03,11,37,18.60
2011,07,03,11,38,18.60
2011,07,03,11,39,18.60
2011,07,03,11,40,18.60
2011,07,03,11,41,18.60
2011,07,03,11,42,18.60
2011,07,03,11,43,18.70
2011,07,03,11,44,18.80
2011,07,03,11,45,18.90
2011,07,03,11,46,18.90
2011,07,03,11,47,18.90
2011,07,03,11,48,18.90
2011,07,03,11,49,18.80
2011,07,03,11,50,18.80
2011,07,03,11,51,18.70
2011,07,03,11,52,18.60
2011,07,03,11,53,18.60
2011,07,03,11,54,18.70
2011,07,03,11,55,18.70
2011,07,03,11,56,18.80
2011,07,03,11,57,18.80
2011,07,03,11,58,18.90
2011,07,03,11,59,18.90
2011,07,03,12,00,18.90
2011,07,03,12,01,18.90
2011,07,03,12,02,18.90
2011,07,03,12,03,18.90
2011,07,03,12,04,18.90
2011,07,03,12,05,19.00
2011,07,03,12,06,19.10
2011,07,03,12,07,19.10
2011,07,03,12,08,19.10
2011,07,03,12,09,19.10
2011,07,03,12,10,19.20
2011,07,03,12,11,19.30
2011,07,03,12,12,19.40
2011,07,03,12,13,19.50
2011,07,03,12,14,19.60
2011,07,03,12,15,19.60
2011,07,03,12,16,19.60
2011,07,03,12,17,19.50
2011,07,03,12,18,19.40
2011,07,03,12,19,19.40
2011,07,03,12,20,19.40
2011,07,03,12,21,19.40
2011,07,03,12,22,19.40
2011,07,03,12,23,19.60
2011,07,03,12,24,19.80
2011,07,03,12,25,19.90
2011,07,03,12,26,19.80
2011,07,03,12,27,19.60
2011,07,03,12,28,19.40
2011,07,03,12,29,19.30
2011,07,03,12,30,19.30
2011,07,03,12,31,19.30
2011,07,03,12,32,19.50
2011,07,03,12,33,19.60
2011,07,03,12,34,19.50
2011,07,03,12,35,19.40
2011,07,03,12,36,19.30
2011,07,03,12,37,19.20
2011,07,03,12,38,19.10
2011,07,03,12,39,19.10
2011,07,03,12,40,19.20
2011,07,03,12,41,19.30
2011,07,03,12,42,19.20
2011,07,03,12,43,19.30
2011,07,03,12,44,19.40
2011,07,03,12,45,19.50
2011,07,03,12,46,19.60
2011,07,03,12,47,19.70
2011,07,03,12,48,19.90
2011,07,03,12,49,20.10
2011,07,03,12,50,20.20
2011,07,03,12,51,20.30
2011,07,03,12,52,20.40
2011,07,03,12,53,20.40
2011,07,03,12,54,20.40
2011,07,03,12,55,20.30
2011,07,03,12,56,20.20
2011,07,03,12,57,20.20
2011,07,03,12,58,20.30
2011,07,03,12,59,20.40
2011,07,03,13,00,20.50
2011,07,03,13,01,20.60
2011,07,03,13,02,20.70
2011,07,03,13,03,20.60
2011,07,03,13,04,20.70
2011,07,03,13,05,20.70
2011,07,03,13,06,20.70
2011,07,03,13,07,20.80
2011,07,03,13,08,20.80
2011,07,03,13,09,20.90
2011,07,03,13,10,20.90
2011,07,03,13,11,20.80
2011,07,03,13,12,20.80
2011,07,03,13,13,20.70
2011,07,03,13,14,20.60
2011,07,03,13,15,20.60
2011,07,03,13,16,20.50
2011,07,03,13,17,20.50
2011,07,03,13,18,20.70
2011,07,03,13,19,20.80
2011,07,03,13,20,20.90
2011,07,03,13,21,21.10
2011,07,03,13,22,21.20
2011,07,03,13,23,21.20
2011,07,03,13,24,21.20
2011,07,03,13,25,21.20
2011,07,03,13,26,21.20
2011,07,03,13,27,21.20
2011,07,03,13,28,21.20
2011,07,03,13,29,21.10
2011,07,03,13,30,21.10
2011,07,03,13,31,21.20
2011,07,03,13,32,21.20
2011,07,03,13,33,21.30
2011,07,03,13,34,21.30
2011,07,03,13,35,21.40
2011,07,03,13,36,21.60
2011,07,03,13,37,21.60
2011,07,03,13,38,21.60
2011,07,03,13,39,21.60
2011,07,03,13,40,21.60
2011,07,03,13,41,21.40
2011,07,03,13,42,21.30
2011,07,03,13,43,21.20
2011,07,03,13,44,21.20
2011,07,03,13,45,21.30
2011,07,03,13,46,21.30
2011,07,03,13,47,21.30
2011,07,03,13,48,21.20
2011,07,03,13,49,21.10
2011,07,03,13,50,21.10
2011,07,03,13,51,21.10
2011,07,03,13,52,21.20
2011,07,03,13,53,21.20
2011,07,03,13,54,21.20
2011,07,03,13,55,21.40
2011,07,03,13,56,21.50
2011,07,03,13,57,21.60
2011,07,03,13,58,21.70
2011,07,03,13,59,21.80
2011,07,03,14,00,22.00
2011,07,03,14,01,22.10
2011,07,03,14,02,22.10
2011,07,03,14,03,22.10
2011,07,03,14,04,22.10
2011,07,03,14,05,22.10
2011,07,03,14,06,22.00
2011,07,03,14,07,22.00
2011,07,03,14,08,22.10
2011,07,03,14,09,22.10
2011,07,03,14,10,22.20
2011,07,03,14,11,22.20
2011,07,03,14,12,22.00
2011,07,03,14,13,21.90
2011,07,03,14,14,21.90
2011,07,03,14,15,21.90
2011,07,03,14,16,21.90
2011,07,03,14,17,22.00
2011,07,03,14,18,22.00
2011,07,03,14,19,22.20
2011,07,03,14,20,22.20
2011,07,03,14,21,22.20
2011,07,03,14,22,22.20
2011,07,03,14,23,22.30
2011,07,03,14,24,22.30
2011,07,03,14,25,22.20
2011,07,03,14,26,22.20
2011,07,03,14,27,22.20
2011,07,03,14,28,22.20
2011,07,03,14,29,22.10
2011,07,03,14,30,22.00
2011,07,03,14,31,21.80
2011,07,03,14,32,21.70
2011,07,03,14,33,21.60
2011,07,03,14,34,21.40
2011,07,03,14,35,21.40
2011,07,03,14,36,21.40
2011,07,03,14,37,21.40
2011,07,03,14,38,21.40
2011,07,03,14,39,21.40
2011,07,03,14,40,21.40
2011,07,03,14,41,21.40
2011,07,03,14,42,21.50
2011,07,03,14,43,21.60
2011,07,03,14,44,21.70
2011,07,03,14,45,21.70
2011,07,03,14,46,21.60
2011,07,03,14,47,21.60
2011,07,03,14,48,21.60
2011,07,03,14,49,21.40
2011,07,03,14,50,21.40
2011,07,03,14,51,21.30
2011,07,03,14,52,21.30
2011,07,03,14,53,21.30
2011,07,03,14,54,21.30
2011,07,03,14,55,21.30
2011,07,03,14,56,21.30
2011,07,03,14,57,21.20
2011,07,03,14,58,21.10
2011,07,03,14,59,21.10
2011,07,03,15,00,21.10
2011,07,03,15,01,21.10
2011,07,03,15,02,21.30
2011,07,03,15,03,21.40
2011,07,03,15,04,21.30
2011,07,03,15,05,21.30
2011,07,03,15,06,21.30
2011,07,03,15,07,21.30
2011,07,03,15,08,21.30
2011,07,03,15,09,21.30
2011,07,03,15,10,21.40
2011,07,03,15,11,21.50
2011,07,03,15,12,21.60
2011,07,03,15,13,21.70
2011,07,03,15,14,21.70
2011,07,03,15,15,21.60
2011,07,03,15,16,21.40
2011,07,03,15,17,21.30
2011,07,03,15,18,21.20
2011,07,03,15,19,21.20
2011,07,03,15,20,21.10
2011,07,03,15,21,21.00
2011,07,03,15,22,20.90
2011,07,03,15,23,20.80
2011,07,03,15,24,20.80
2011,07,03,15,25,20.80
2011,07,03,15,26,20.70
2011,07,03,15,27,20.70
2011,07,03,15,28,20.70
2011,07,03,15,29,20.70
2011,07,03,15,30,20.70
2011,07,03,15,31,20.80
2011,07,03,15,32,20.70
2011,07,03,15,33,20.80
2011,07,03,15,34,20.70
2011,07,03,15,35,20.60
2011,07,03,15,36,20.60
2011,07,03,15,37,20.50
2011,07,03,15,38,20.50
2011,07,03,15,39,20.40
2011,07,03,15,40,20.30
2011,07,03,15,41,20.20
2011,07,03,15,42,20.20
2011,07,03,15,43,20.10
2011,07,03,15,44,20.10
2011,07,03,15,45,20.10
2011,07,03,15,46,20.10
2011,07,03,15,47,20.00
2011,07,03,15,48,19.90
2011,07,03,15,49,19.90
2011,07,03,15,50,19.90
2011,07,03,15,51,19.80
2011,07,03,15,52,19.80
2011,07,03,15,53,19.80
2011,07,03,15,54,19.80
2011,07,03,15,55,19.80
2011,07,03,15,56,19.70
2011,07,03,15,57,19.70
2011,07,03,15,58,19.70
2011,07,03,15,59,19.70
2011,07,03,16,00,19.60
2011,07,03,16,01,19.60
2011,07,03,16,02,19.60
2011,07,03,16,03,19.60
2011,07,03,16,04,19.60
2011,07,03,16,05,19.70
2011,07,03,16,06,19.70
2011,07,03,16,07,19.70
2011,07,03,16,08,19.80
2011,07,03,16,09,19.90
2011,07,03,16,10,20.00
2011,07,03,16,11,20.10
2011,07,03,16,12,20.10
2011,07,03,16,13,20.10
2011,07,03,16,14,20.10
2011,07,03,16,15,20.10
2011,07,03,16,16,20.10
2011,07,03,16,17,20.10
2011,07,03,16,18,20.20
2011,07,03,16,19,20.40
2011,07,03,16,20,20.50
2011,07,03,16,21,20.70
2011,07,03,16,22,20.80
2011,07,03,16,23,20.90
2011,07,03,16,24,21.00
2011,07,03,16,25,21.10
2011,07,03,16,26,21.10
2011,07,03,16,27,21.00
2011,07,03,16,28,21.10
2011,07,03,16,29,21.10
2011,07,03,16,30,21.20
2011,07,03,16,31,21.20
2011,07,03,16,32,21.10
2011,07,03,16,33,21.10
2011,07,03,16,34,21.00
2011,07,03,16,35,20.90
2011,07,03,16,36,20.90
2011,07,03,16,37,20.90
2011,07,03,16,38,20.80
2011,07,03,16,39,20.80
2011,07,03,16,40,20.80
2011,07,03,16,41,20.80
2011,07,03,16,42,20.80
2011,07,03,16,43,20.80
2011,07,03,16,44,20.80
2011,07,03,16,45,20.80
2011,07,03,16,46,20.90
2011,07,03,16,47,21.00
2011,07,03,16,48,21.00
2011,07,03,16,49,21.00
2011,07,03,16,50,21.00
2011,07,03,16,51,20.90
2011,07,03,16,52,21.00
2011,07,03,16,53,21.10
2011,07,03,16,54,21.10
2011,07,03,16,55,21.10
2011,07,03,16,56,21.20
2011,07,03,16,57,21.20
2011,07,03,16,58,21.20
2011,07,03,16,59,21.20
2011,07,03,17,00,21.20
2011,07,03,17,01,21.30
2011,07,03,17,02,21.10
2011,07,03,17,03,21.10
2011,07,03,17,04,21.10
2011,07,03,17,05,21.10
2011,07,03,17,06,21.20
2011,07,03,17,07,21.30
2011,07,03,17,08,21.30
2011,07,03,17,09,21.40
2011,07,03,17,10,21.40
2011,07,03,17,11,21.40
2011,07,03,17,12,21.30
2011,07,03,17,13,21.30
2011,07,03,17,14,21.30
2011,07,03,17,15,21.30
2011,07,03,17,16,21.20
2011,07,03,17,17,21.10
2011,07,03,17,18,21.10
2011,07,03,17,19,21.20